Location: Alvediston
(51.0078°N, 2.0364°W)
Time: 15:57:21
(UTC+00:00)

Okean 1 - Pass Details

Date: 27 February 2020
Orbit: 538 x 556 km, 82.5° (Epoch: 29 March)

Event Time Altitude Azimuth Distance (km) Brightness Sun altitude
Rises 18:39:34 0° 353° (N) 2,731 6.9 -9.4°
Reaches altitude 10° 18:41:48 10° 359° (N) 1,830 6.0 -9.7°
Maximum altitude 18:45:42 48° 75° (ENE) 718 3.5 -10.4°
Drops below altitude 10° 18:49:34 10° 151° (SSE) 1,805 5.7 -11.0°
Sets 18:51:45 0° 157° (SSE) 2,689 6.6 -11.3°
